Погода в Воздвиженском

Россия / Ярославская область     57°23′21″N   38°03′27″E
В апреле 2022 года жителям России запретили посещать сайт meteo.paraplan.net по решению Генеральной прокуратуры. Аудитория сайта уменьшилась в 10 раз. Владельцы сайта не видят смысла в поддержке погодного сервера в таких условиях. Сайт будет закрыт в октябре.
темп.,
°C
ветер,
м/с
пор.,
м/с
влажн.,
%
обл.,
%
осадки,
мм/ч
давл.,
гПа
погр.,
м
29 сентября, чт
чт2900:00+6в51095100 0.1 1004482
03:00+5в4996100 0.3 1004406
06:00+5в3697100 0.4 1005315
09:00+7юз149695 0.6 1006276
12:00+10ююз347898 0.1 1008810
15:00+8ююз3589100 0.2 1009266
18:00+8ююв249078 0.0 1011135
21:00+8ю359258 0.0 1012103
30 сентября, пт
пт3000:00+7ююв379590 0.0 1013142
03:00+8ю51289100 0.0 1013333
06:00+8ю4119198 0.1 1013273
09:00+10ю41284100 0.0 1014411
12:00+11ю31082100 0.0 1014457
15:00+10ююв31094100 3.9 1014446
18:00+10ююз2998100 4.1 1015396
21:00+10зюз2798100 4.4 1015332
1 октября, сб
сб100:00+10зюз2395100 0.0 101698
03:00+9з229397 0.0 101737
06:00+7з119398 0.0 101710
09:00+10зсз118497 0.0 1017154
12:00+12в117496 0.0 1017541
15:00+13всв1172100 0.1 1015610
18:00+10в2290100 0.6 101559
21:00+10св2595100 1.3 1013196
2 октября, вс
вс200:00+9св4896100 2.1 1011406
03:00+9св61295100 6.9 1010571
06:00+9ссв61194100 3.3 1010632
09:00+8ссв51093100 4.1 1010532
12:00+8ссв5992100 0.3 1011492
15:00+8ссв51085100 0.3 1012592
18:00+8с268795 0.0 1013216
21:00+7ссв359090 0.0 1014142
3 октября, пн
пн300:00+5св3693100 0.0 1014128
03:00+4всв389575 0.0 1014174
06:00+7всв4994100 0.0 1011361
09:00+8всв61190100 0.0 1010452
12:00+9св71391100 0.6 1009523
15:00+10всв71691100 1.4 1007713
18:00+11в81694100 1.1 1005598
21:00+13в71593100 1.6 1003892